Location: ??
(35.3149°N, 139.6204°E)
Time: 10:40:24
(UTC+00:00)

Cosmos 2242 Rocket - Pass Details

Date: 03 August 2024
Orbit: 616 x 647 km, 82.5° (Epoch: 10 September)

Event Time Altitude Azimuth Distance (km) Brightness Sun altitude
Rises 18:35:29 0° 356° (N) 2,895 7.4 -14.7°
Reaches altitude 10° 18:37:44 10° 358° (N) 1,988 6.6 -14.3°
Maximum altitude 18:42:07 70° 82° (E) 661 3.9 -13.6°
Drops below altitude 10° 18:46:30 10° 167° (SSE) 1,989 6.0 -12.8°
Sets 18:48:45 0° 169° (S) 2,897 6.8 -12.4°
